FW0135 Weather Reports


Display with metric or nautical units.
time (UTC)temp
F
wind
direction
speed
MPH
gust
MPH
rain 1hr
in
rain 24hr
in
rain mn
in
humidity
%
barometer
mb
20260906223707 63 108 0.0 0.0 0.00 0.16 0.08 75 1000.7
20260906223202 64 108 0.0 2.0 0.00 0.16 0.08 74 1000.6
20260906222656 64 108 0.0 2.0 0.00 0.16 0.08 72 1000.6
20260906221643 65 108 0.0 2.0 0.00 0.16 0.08 71 1000.7
20260906221138 65 108 0.0 1.0 0.00 0.16 0.08 70 1000.6
20260906220632 65 106 0.0 2.0 0.00 0.16 0.08 72 1000.6
20260906215620 66 104 0.0 2.0 0.00 0.16 0.08 67 1000.6
20260906215114 66 104 0.0 2.0 0.00 0.16 0.08 68 1000.5
20260906214608 66 105 0.0 2.0 0.00 0.16 0.08 68 1000.6
20260906214102 67 102 0.0 2.0 0.00 0.16 0.08 60 1000.6
20260906213556 67 105 0.0 2.0 0.00 0.16 0.08 60 1000.5
20260906212543 67 151 0.0 2.0 0.00 0.16 0.08 61 1000.4
20260906212038 67 276 0.0 2.0 0.00 0.16 0.08 61 1000.4
20260906211034 67 89 0.0 3.0 0.00 0.16 0.08 64 1000.3
20260906210531 67 89 0.0 3.0 0.00 0.16 0.08 59 1000.3
20260906205531 67 236 0.0 2.0 0.00 0.16 0.08 62 1000.3
20260906205033 67 79 0.0 3.0 0.00 0.16 0.08 63 1000.2
20260906204533 67 98 1.0 3.0 0.00 0.16 0.08 62 1000.2
20260906204031 67 293 1.0 2.0 0.00 0.16 0.08 63 1000.1
20260906203529 67 198 0.0 2.0 0.00 0.16 0.08 62 1000.0
20260906203029 67 327 0.0 2.0 0.00 0.16 0.08 62 1000.0
20260906202529 68 67 1.0 3.0 0.00 0.16 0.08 66 1000.0
20260906202026 68 68 1.0 3.0 0.00 0.16 0.08 63 1000.0
20260906201526 68 328 1.0 3.0 0.00 0.16 0.08 60 1000.0
20260906201026 68 108 1.0 4.0 0.00 0.16 0.08 61 1000.0
20260906200523 68 146 1.0 4.0 0.00 0.16 0.08 63 999.9
20260906200024 68 345 1.0 6.0 0.00 0.16 0.08 67 999.9
20260906195021 68 93 1.0 3.0 0.00 0.16 0.08 67 999.9
20260906194517 67 17 1.0 2.0 0.00 0.16 0.08 70 999.9
20260906194016 67 115 0.0 2.0 0.00 0.16 0.08 68 999.8
20260906193015 67 274 1.0 3.0 0.00 0.16 0.08 74 999.8
20260906192515 67 111 1.0 2.0 0.00 0.16 0.08 77 999.9
20260906192016 67 111 0.0 2.0 0.00 0.16 0.08 75 999.8
20260906191515 67 110 0.0 2.0 0.00 0.16 0.08 78 999.9
20260906191015 67 110 0.0 1.0 0.00 0.16 0.08 74 999.9
20260906190517 67 110 0.0 3.0 0.00 0.16 0.08 77 1000.0
20260906190011 67 110 1.0 3.0 0.00 0.16 0.08 82 999.9
20260906185512 67 167 1.0 5.0 0.00 0.16 0.08 81 1000.0
20260906184513 67 276 0.0 1.0 0.00 0.16 0.08 79 1000.0
20260906184012 67 276 0.0 1.0 0.00 0.16 0.08 77 1000.0
20260906183511 67 276 0.0 3.0 0.00 0.16 0.08 74 1000.1
20260906183011 67 277 1.0 3.0 0.00 0.16 0.08 72 1000.2
20260906182512 67 277 1.0 3.0 0.00 0.16 0.08 74 1000.2
20260906182012 67 302 0.0 3.0 0.00 0.16 0.08 75 1000.2
20260906181506 66 158 1.0 3.0 0.00 0.16 0.08 73 1000.2
20260906180453 65 54 0.0 3.0 0.00 0.16 0.08 78 1000.2
20260906175948 65 5 0.0 3.0 0.00 0.16 0.08 82 1000.2
20260906175442 65 128 0.0 0.0 0.00 0.16 0.08 85 1000.2
20260906174937 65 128 0.0 0.0 0.00 0.16 0.08 86 1000.3
20260906174430 65 130 0.0 0.0 0.00 0.16 0.08 84 1000.3
20260906173924 65 130 0.0 0.0 0.00 0.16 0.08 80 1000.4
20260906173418 65 130 0.0 0.0 0.00 0.16 0.08 84 1000.4
20260906172911 64 130 0.0 0.0 0.00 0.16 0.08 84 1000.5
20260906172406 64 142 0.0 0.0 0.00 0.16 0.08 87 1000.7
20260906171900 64 141 0.0 0.0 0.00 0.16 0.08 88 1000.8
20260906171353 64 83 0.0 0.0 0.00 0.16 0.08 88 1000.8
20260906170342 63 83 0.0 0.0 0.00 0.16 0.08 88 1000.7
20260906165835 63 83 0.0 0.0 0.00 0.16 0.08 88 1000.7
20260906164823 62 83 0.0 0.0 0.00 0.16 0.08 88 1001.0
20260906164318 62 83 0.0 0.0 0.00 0.16 0.08 88 1001.2
20260906163811 62 83 0.0 0.0 0.00 0.16 0.08 88 1001.2
20260906163306 63 83 0.0 0.0 0.00 0.16 0.08 88 1001.2
20260906162800 62 83 0.0 0.0 0.00 0.16 0.08 89 1001.2
20260906161748 62 86 0.0 0.0 0.00 0.16 0.08 90 1001.1
20260906161241 61 86 0.0 0.0 0.00 0.16 0.08 91 1001.1
20260906160736 61 86 0.0 0.0 0.00 0.16 0.08 90 1001.1
20260906160230 61 86 0.0 0.0 0.00 0.16 0.08 90 1001.2
20260906155724 61 86 0.0 0.0 0.00 0.16 0.08 91 1001.4
20260906155218 61 86 0.0 0.0 0.00 0.16 0.08 91 1001.4
20260906154712 61 86 0.0 0.0 0.00 0.16 0.08 91 1001.5
20260906154206 61 86 0.0 0.0 0.00 0.16 0.08 91 1001.5
20260906153154 60 86 0.0 0.0 0.00 0.16 0.08 90 1001.5
20260906152648 61 86 0.0 0.0 0.00 0.16 0.08 92 1001.7
20260906152141 60 86 0.0 0.0 0.00 0.16 0.08 92 1001.7
20260906151129 60 86 0.0 0.0 0.00 0.16 0.08 92 1001.7
20260906150623 60 86 0.0 0.0 0.00 0.16 0.08 92 1001.8
20260906145611 60 86 0.0 0.0 0.00 0.16 0.08 93 1002.0
20260906145106 60 86 0.0 0.0 0.00 0.16 0.08 93 1002.0
20260906144600 60 86 0.0 0.0 0.00 0.16 0.08 93 1002.0
20260906144053 60 86 0.0 0.0 0.00 0.16 0.08 93 1002.0
20260906143547 60 86 0.0 0.0 0.00 0.16 0.08 93 1001.9
20260906143042 60 86 0.0 0.0 0.00 0.16 0.08 93 1001.9
20260906142536 60 86 0.0 0.0 0.00 0.16 0.08 93 1001.9
20260906142029 60 86 0.0 0.0 0.00 0.16 0.08 93 1001.9
20260906141523 60 86 0.0 0.0 0.00 0.16 0.08 93 1001.9
20260906141018 60 86 0.0 0.0 0.00 0.16 0.08 93 1001.8
20260906140513 60 86 0.0 0.0 0.00 0.16 0.08 93 1001.9
20260906140006 60 86 0.0 0.0 0.00 0.16 0.08 93 1001.8
20260906135459 59 86 0.0 0.0 0.00 0.16 0.08 94 1001.9
20260906134954 59 86 0.0 0.0 0.00 0.16 0.08 94 1002.0
20260906134447 59 86 0.0 0.0 0.00 0.16 0.08 94 1001.9
20260906133435 59 86 0.0 0.0 0.00 0.16 0.08 94 1001.9
20260906132936 59 86 0.0 0.0 0.00 0.16 0.08 94 1001.8
20260906132436 58 86 0.0 0.0 0.00 0.16 0.08 93 1001.8
20260906131935 58 86 0.0 0.0 0.00 0.16 0.08 93 1001.9
20260906131435 58 86 0.0 0.0 0.00 0.16 0.08 93 1001.8
20260906130931 58 86 0.0 0.0 0.01 0.16 0.08 93 1001.7
20260906130428 58 86 0.0 0.0 0.01 0.16 0.08 93 1001.7
20260906125928 58 86 0.0 0.0 0.01 0.16 0.08 93 1001.6
20260906125426 58 86 0.0 0.0 0.01 0.16 0.08 93 1001.6
20260906124421 58 86 0.0 0.0 0.02 0.16 0.08 93 1001.5
20260906123921 58 86 0.0 0.0 0.03 0.16 0.08 93 1001.6
20260906123422 58 86 0.0 0.0 0.03 0.16 0.08 93 1001.6
20260906122919 58 86 0.0 0.0 0.03 0.16 0.08 94 1001.5
20260906122417 58 86 0.0 0.0 0.04 0.16 0.08 94 1001.4
20260906121918 58 86 0.0 0.0 0.04 0.16 0.08 93 1001.5
20260906121414 58 86 0.0 0.0 0.04 0.16 0.08 93 1001.5
20260906120918 58 86 0.0 0.0 0.03 0.15 0.07 93 1001.6
20260906120412 57 86 0.0 0.0 0.03 0.15 0.07 93 1001.7
20260906115912 57 86 0.0 0.0 0.03 0.15 0.07 93 1001.7
20260906114911 57 86 0.0 0.0 0.03 0.15 0.07 93 1001.8
20260906114411 57 86 0.0 0.0 0.02 0.14 0.06 93 1001.6
20260906113910 57 86 0.0 0.0 0.01 0.13 0.05 93 1001.6
20260906113411 57 86 0.0 0.0 0.01 0.13 0.05 93 1001.6
20260906112910 57 86 0.0 0.0 0.01 0.13 0.05 93 1001.6
20260906111412 57 86 0.0 0.0 0.00 0.12 0.04 93 1001.4
20260906110911 57 86 0.0 0.0 0.00 0.12 0.04 93 1001.4
20260906110412 56 86 0.0 0.0 0.00 0.12 0.04 93 1001.4
20260906105911 56 86 0.0 0.0 0.00 0.12 0.04 93 1001.3
20260906105411 56 86 0.0 0.0 0.00 0.12 0.04 93 1001.1
20260906104912 56 86 0.0 0.0 0.00 0.12 0.04 93 1001.0
20260906104412 56 86 0.0 0.0 0.00 0.12 0.04 93 1000.8
20260906103910 56 86 0.0 0.0 0.00 0.12 0.04 93 1000.7
20260906103404 57 86 0.0 0.0 0.00 0.12 0.04 93 1000.6
20260906102858 57 86 0.0 0.0 0.00 0.12 0.04 93 1000.7
20260906102351 56 86 0.0 0.0 0.00 0.12 0.04 93 1000.7
20260906101340 57 86 0.0 0.0 0.01 0.12 0.04 93 1000.8
20260906100328 57 86 0.0 0.0 0.01 0.12 0.04 93 1000.7
20260906095821 57 86 0.0 0.0 0.01 0.12 0.04 93 1000.5
20260906095316 57 86 0.0 0.0 0.01 0.12 0.04 93 1000.5
20260906094810 57 86 0.0 0.0 0.01 0.12 0.04 93 1000.4
20260906094304 57 86 0.0 0.0 0.01 0.12 0.04 93 1000.4
20260906093252 57 86 0.0 0.0 0.01 0.12 0.04 93 1000.3
20260906092746 57 86 0.0 0.0 0.01 0.12 0.04 93 1000.3
20260906092239 57 86 0.0 0.0 0.01 0.12 0.04 93 1000.3
20260906091734 57 86 0.0 0.0 0.00 0.11 0.03 93 1000.2
20260906090722 57 86 0.0 0.0 0.00 0.11 0.03 93 1000.1
20260906085710 57 86 0.0 0.0 0.00 0.11 0.03 93 1000.0
20260906085204 57 86 0.0 0.0 0.00 0.11 0.03 93 1000.0
20260906084658 57 86 0.0 0.0 0.00 0.11 0.03 92 1000.0
20260906084152 57 86 0.0 0.0 0.00 0.11 0.03 92 999.9
20260906083646 57 86 0.0 0.0 0.00 0.11 0.03 92 999.9
20260906082128 58 86 0.0 0.0 0.01 0.11 0.03 92 1000.0
20260906081622 58 86 0.0 0.0 0.01 0.11 0.03 92 1000.0
20260906080610 58 86 0.0 0.0 0.03 0.11 0.03 92 999.9
20260906080104 58 86 0.0 0.0 0.03 0.11 0.03 92 999.8
20260906075558 58 86 0.0 0.0 0.03 0.11 0.03 92 999.8
20260906075052 58 86 0.0 0.0 0.03 0.11 0.03 92 999.9
20260906074040 59 86 0.0 0.0 0.03 0.11 0.03 92 999.9
20260906072521 59 86 0.0 0.0 0.03 0.11 0.03 93 1000.0
20260906072016 59 86 0.0 0.0 0.02 0.10 0.02 93 999.9
20260906071510 59 86 0.0 0.0 0.02 0.10 0.02 93 999.8
20260906071004 59 86 0.0 0.0 0.00 0.08 0.01 93 999.8
20260906070458 59 86 0.0 0.0 0.00 0.08 0.00 93 999.8
20260906065952 59 86 0.0 0.0 0.00 0.08 0.00 93 999.8
20260906065445 59 86 0.0 0.0 0.00 0.08 0.00 93 999.7
20260906064940 59 86 0.0 0.0 0.00 0.08 0.00 93 999.6
20260906064434 59 86 0.0 0.0 0.00 0.08 0.00 93 999.5
20260906063927 59 86 0.0 0.0 0.00 0.08 0.00 92 999.5
20260906063422 59 86 0.0 0.0 0.00 0.08 0.00 92 999.4
20260906062916 59 86 0.0 0.0 0.00 0.08 0.00 92 999.4
20260906062410 59 86 0.0 0.0 0.00 0.08 0.00 92 999.4
20260906061905 59 86 0.0 0.0 0.00 0.08 0.00 92 999.4
20260906061358 59 86 0.0 0.0 0.00 0.08 0.00 92 999.4
20260906060852 60 86 0.0 0.0 0.00 0.08 0.00 92 999.4
20260906060346 59 86 0.0 0.0 0.00 0.08 0.00 92 999.4
20260906055334 60 86 0.0 0.0 0.00 0.08 0.00 92 999.5
20260906054828 60 86 0.0 0.0 0.00 0.08 0.00 92 999.4
20260906054322 60 86 0.0 0.0 0.00 0.08 0.00 92 999.4
20260906053816 60 86 0.0 0.0 0.00 0.08 0.00 92 999.4
20260906053310 60 86 0.0 0.0 0.00 0.08 0.00 92 999.4
20260906052804 60 86 0.0 0.0 0.00 0.08 0.00 92 999.4
20260906052257 60 86 0.0 0.0 0.00 0.08 0.00 92 999.5
20260906051751 60 86 0.0 0.0 0.00 0.08 0.00 92 999.5
20260906051246 60 86 0.0 0.0 0.00 0.08 0.00 92 999.5
20260906050740 60 86 0.0 0.0 0.00 0.08 0.00 92 999.6
20260906050233 60 86 0.0 0.0 0.00 0.08 0.00 92 999.6
20260906045221 60 86 0.0 0.0 0.00 0.08 0.00 92 999.7
20260906044720 60 86 0.0 0.0 0.00 0.08 0.00 92 999.7
20260906044221 60 86 0.0 0.0 0.00 0.08 0.00 92 999.6
20260906043217 60 86 0.0 0.0 0.00 0.08 0.00 92 999.6
20260906042717 60 86 0.0 0.0 0.00 0.08 0.00 92 999.5
20260906042215 60 86 0.0 0.0 0.00 0.08 0.00 92 999.5
20260906041716 60 86 0.0 0.0 0.00 0.08 0.00 92 999.5
20260906041216 60 86 0.0 0.0 0.00 0.08 0.00 92 999.4
20260906040715 60 86 0.0 0.0 0.00 0.08 0.00 92 999.5
20260906040217 60 86 0.0 0.0 0.00 0.08 0.00 92 999.5
20260906035710 60 86 0.0 0.0 0.00 0.08 0.08 92 999.4
20260906035206 60 86 0.0 0.0 0.00 0.08 0.08 92 999.3
20260906034204 60 86 0.0 0.0 0.00 0.08 0.08 92 999.4
20260906033704 60 86 0.0 0.0 0.00 0.08 0.08 92 999.4
20260906033205 60 86 0.0 0.0 0.00 0.08 0.08 92 999.3
20260906032706 60 86 0.0 0.0 0.00 0.08 0.08 92 999.2
20260906032206 60 86 0.0 0.0 0.00 0.08 0.08 92 999.2
20260906031205 60 86 0.0 0.0 0.00 0.08 0.08 92 999.2
20260906030704 60 86 0.0 0.0 0.01 0.08 0.08 92 999.1
20260906025704 60 86 0.0 0.0 0.01 0.08 0.08 92 999.1
20260906024700 61 86 0.0 0.0 0.01 0.08 0.08 92 999.1
20260906024201 60 86 0.0 0.0 0.01 0.08 0.08 91 999.2
20260906023702 60 86 0.0 0.0 0.01 0.08 0.08 91 999.2
20260906023157 61 86 0.0 0.0 0.01 0.08 0.08 91 999.2
20260906022656 61 86 0.0 0.0 0.01 0.08 0.08 91 999.3
20260906022158 61 86 0.0 0.0 0.02 0.08 0.08 91 999.3
20260906021156 61 86 0.0 0.0 0.03 0.08 0.08 91 999.2
20260906020656 61 86 0.0 0.0 0.03 0.07 0.07 91 999.2
20260906020158 61 86 0.0 0.0 0.04 0.07 0.07 91 999.2
20260906015657 61 86 0.0 0.0 0.04 0.07 0.07 91 999.2
20260906015158 61 86 0.0 0.0 0.05 0.07 0.07 91 999.2
20260906014653 61 86 0.0 0.0 0.05 0.07 0.07 91 999.2
20260906014154 61 86 0.0 0.0 0.05 0.07 0.07 91 999.2
20260906013654 61 86 0.0 0.0 0.05 0.07 0.07 91 999.2
20260906013153 61 86 0.0 0.0 0.05 0.07 0.07 91 999.2
20260906011653 61 86 0.0 0.0 0.03 0.05 0.05 91 999.2
20260906011152 61 86 0.0 0.0 0.03 0.05 0.05 90 999.2
20260906010653 61 86 0.0 0.0 0.02 0.04 0.04 90 999.3
20260906010147 62 86 0.0 0.0 0.02 0.03 0.03 90 999.2
20260906005641 62 86 0.0 0.0 0.02 0.03 0.03 90 999.2
20260906005135 62 86 0.0 0.0 0.01 0.02 0.02 90 999.3
20260906004629 62 86 0.0 0.0 0.01 0.02 0.02 90 999.2
20260906003617 62 86 0.0 0.0 0.01 0.02 0.02 90 999.0
20260906003110 62 86 0.0 0.0 0.02 0.02 0.02 89 999.0
20260906002604 62 86 0.0 0.0 0.02 0.02 0.02 89 999.0
20260906002059 62 86 0.0 0.0 0.02 0.02 0.02 89 999.0
20260906001553 63 86 0.0 0.0 0.02 0.02 0.02 89 998.9
20260906001047 63 86 0.0 0.0 0.02 0.02 0.02 89 998.8
20260906000541 63 86 0.0 0.0 0.02 0.02 0.02 88 998.8
20260906000034 63 86 0.0 0.0 0.01 0.01 0.01 88 998.7
20260905235528 64 86 0.0 0.0 0.01 0.01 0.01 88 998.7
20260905234517 64 86 0.0 0.0 0.01 0.01 0.01 87 998.5
20260905234010 65 86 0.0 0.0 0.01 0.01 0.01 86 998.3
20260905233504 65 86 0.0 0.0 0.00 0.00 0.00 85 998.3
20260905232959 65 86 0.0 0.0 0.00 0.00 0.00 84 998.2
20260905232453 65 86 0.0 0.0 0.00 0.00 0.00 84 998.2
20260905231946 65 86 0.0 0.0 0.00 0.00 0.00 84 998.2
20260905231440 65 86 0.0 0.0 0.00 0.00 0.00 83 998.1
20260905230935 65 86 0.0 0.0 0.00 0.00 0.00 83 998.1
20260905230429 66 86 0.0 0.0 0.00 0.00 0.00 83 998.1
20260905225922 66 86 0.0 0.0 0.00 0.00 0.00 82 998.0
20260905225416 66 86 0.0 0.0 0.00 0.00 0.00 82 998.0
20260905224405 67 86 0.0 0.0 0.00 0.00 0.00 82 997.9